Location: Caltech
(34.1382°N, 118.1253°W)
Time: 14:06:30
(UTC-07:00)

JAS-2 - Visible Passes

Search period start: 23 April 2014 00:00
Search period end: 03 May 2014 00:00
Orbit: 799 x 1322 km, 98.5° (Epoch: 22 April)

Date Brightness Start Highest point End Pass type
(mag) Time Alt. Az. Time Alt. Az. Time Alt. Az.
23 Apr 12.2 20:49:41 10° WSW 20:51:57 12° W 20:54:10 10° WNW visible
24 Apr 10.6 19:51:15 10° S 19:56:41 42° W 20:01:43 10° NNW visible
25 Apr 12.1 20:44:23 10° WSW 20:47:01 13° W 20:49:34 10° WNW visible
27 Apr 12.0 20:39:08 10° SW 20:42:04 15° W 20:44:55 10° WNW visible
29 Apr 11.9 20:33:56 10° SW 20:37:07 16° W 20:40:13 10° WNW visible
01 May 11.9 20:28:45 10° SW 20:32:10 17° W 20:35:30 10° NW visible
